User: anonymous   Login
Location: ?astrovice
(49.6513°N, 14.9287°E)
Time: 13:25:08
(UTC+00:00)
Language:

Terra - Orbit

View from above orbital plane
View from above orbital plane
View from above satellite
View from above satellite

Ground track
Ground track

The orbit data is extracted from the following two-line orbital elements,

1 25994U 99068A   20189.15325637 -.00000058  00000-0 -27550-5 0  9992
2 25994  98.2129 263.1640 0001406  92.1112 268.0264 14.57113445 93185
Epoch (UTC): 07 July 2020 03:40:41
Eccentricity: 0.0001406
inclination: 98.2129°
perigee height: 701 km
apogee height: 703 km
right ascension of ascending node: 263.1640°
argument of perigee: 92.1112°
revolutions per day: 14.57113445
mean anomaly at epoch: 268.0264°
orbit number at epoch: 9318

The dashed part of the orbit path shows where the satellite is in the earth's shadow,  

DLR